When you browse on this site, cookies collect data to enhance your experience and personalize the content and advertising you see.
Visit our Privacy Policy to learn more. By continuing to use the site, you agree to this use of cookies and data.
  • In Hungary
  • List of Countries
  • For 7 days
  • Water Temperature
  • Satellite Maps
  • Weather Map
  • News
  • Weather Widgets
  • user-avatar
    Login

    Hourly Weather Ciosowa

    Today, 27 May, Monday

    Time Temperature Precipitation Wind Pressure Humidity
    00:00 +14°C° 0 mm 2 mps 733 mmHg 89%
    01:00 +14°C° 0 mm 2 mps 733 mmHg 90%
    02:00 +14°C° 0 mm 2 mps 733 mmHg 90%
    03:00 +14°C° 0 mm 2 mps 732 mmHg 91%
    04:00 +14°C° 0 mm 2 mps 732 mmHg 92%
    05:00 +14°C° 0 mm 3 mps 732 mmHg 86%
    06:00 +17°C° 0 mm 3 mps 733 mmHg 81%
    07:00 +19°C° 0 mm 3 mps 733 mmHg 75%
    08:00 +20°C° 0.3 mm 4 mps 733 mmHg 69%
    09:00 +22°C° 0.3 mm 4 mps 732 mmHg 62%
    10:00 +23°C° 0.3 mm 4 mps 732 mmHg 56%
    11:00 +23°C° 0.4 mm 4 mps 732 mmHg 56%
    12:00 +25°C° 0.4 mm 4 mps 732 mmHg 57%
    13:00 +25°C° 0.4 mm 4 mps 732 mmHg 57%
    14:00 +25°C° 0.1 mm 3 mps 731 mmHg 55%
    15:00 +26°C° 0.1 mm 3 mps 731 mmHg 54%
    16:00 +26°C° 0.1 mm 3 mps 731 mmHg 52%
    17:00 +24°C° 0.2 mm 3 mps 731 mmHg 61%
    18:00 +21°C° 0.2 mm 3 mps 730 mmHg 70%
    19:00 +20°C° 0.2 mm 2 mps 730 mmHg 79%
    20:00 +19°C° 0.2 mm 2 mps 730 mmHg 83%
    21:00 +18°C° 0.2 mm 2 mps 729 mmHg 87%
    22:00 +18°C° 0.2 mm 2 mps 729 mmHg 91%
    23:00 +17°C° 0 mm 2 mps 729 mmHg 91%

    Tomorrow, 28 May, Tuesday

    Time Temperature Precipitation Wind Pressure Humidity
    00:00 +17°C° 0 mm 2 mps 729 mmHg 92%
    01:00 +17°C° 0 mm 2 mps 728 mmHg 93%
    02:00 +16°C° 0 mm 2 mps 728 mmHg 93%
    03:00 +16°C° 0 mm 2 mps 728 mmHg 94%
    04:00 +16°C° 0 mm 2 mps 727 mmHg 95%
    05:00 +17°C° 0 mm 2 mps 727 mmHg 91%
    06:00 +18°C° 0 mm 2 mps 727 mmHg 87%
    07:00 +19°C° 0 mm 2 mps 727 mmHg 83%
    08:00 +20°C° 0.1 mm 3 mps 727 mmHg 75%
    09:00 +22°C° 0.1 mm 4 mps 727 mmHg 68%
    10:00 +23°C° 0.1 mm 4 mps 727 mmHg 61%
    11:00 +23°C° 0.9 mm 4 mps 727 mmHg 64%
    12:00 +24°C° 0.9 mm 3 mps 727 mmHg 68%
    13:00 +22°C° 0.9 mm 3 mps 727 mmHg 71%
    14:00 +21°C° 1.4 mm 2 mps 726 mmHg 77%
    15:00 +20°C° 1.4 mm 2 mps 726 mmHg 83%
    16:00 +20°C° 1.4 mm 1 mps 726 mmHg 89%
    17:00 +20°C° 0.8 mm 1 mps 726 mmHg 87%
    18:00 +20°C° 0.8 mm 1 mps 726 mmHg 86%
    19:00 +19°C° 0.8 mm 1 mps 726 mmHg 84%
    20:00 +19°C° 0.2 mm 1 mps 727 mmHg 85%
    21:00 +16°C° 0.2 mm 0 mps 727 mmHg 86%
    22:00 +15°C° 0.2 mm 0 mps 727 mmHg 88%
    23:00 +16°C° 0.3 mm 1 mps 728 mmHg 91%

    Day after tomorrow, 29 May, Wednesday

    Time Temperature Precipitation Wind Pressure Humidity
    00:00 +15°C° 0.3 mm 2 mps 728 mmHg 94%
    01:00 +14°C° 0.3 mm 2 mps 728 mmHg 97%
    02:00 +13°C° 0.1 mm 3 mps 729 mmHg 97%
    03:00 +13°C° 0.1 mm 4 mps 729 mmHg 96%
    04:00 +12°C° 0.1 mm 4 mps 730 mmHg 96%
    05:00 +12°C° 0.1 mm 4 mps 731 mmHg 95%
    06:00 +10°C° 0.1 mm 5 mps 731 mmHg 94%
    07:00 +9°C° 0.1 mm 5 mps 732 mmHg 93%
    08:00 +9°C° 0.2 mm 5 mps 733 mmHg 93%
    09:00 +8°C° 0.2 mm 5 mps 733 mmHg 93%
    10:00 +8°C° 0.2 mm 4 mps 734 mmHg 92%
    11:00 +8°C° 0 mm 5 mps 734 mmHg 90%
    12:00 +9°C° 0 mm 5 mps 735 mmHg 87%
    13:00 +10°C° 0 mm 5 mps 735 mmHg 84%
    14:00 +12°C° 0 mm 5 mps 736 mmHg 78%
    15:00 +13°C° 0 mm 5 mps 736 mmHg 72%
    16:00 +14°C° 0 mm 4 mps 736 mmHg 66%
    17:00 +13°C° 0 mm 4 mps 736 mmHg 70%
    18:00 +12°C° 0 mm 3 mps 736 mmHg 74%
    19:00 +11°C° 0 mm 3 mps 736 mmHg 78%
    20:00 +10°C° 0 mm 2 mps 737 mmHg 80%
    21:00 +10°C° 0 mm 2 mps 737 mmHg 83%
    22:00 +9°C° 0 mm 2 mps 737 mmHg 86%
    23:00 +9°C° 0 mm 3 mps 737 mmHg 82%

    30 May, Thursday

    Time Temperature Precipitation Wind Pressure Humidity
    00:00 +9°C° 0 mm 3 mps 737 mmHg 79%
    01:00 +9°C° 0 mm 3 mps 737 mmHg 75%
    02:00 +8°C° 0 mm 3 mps 737 mmHg 78%
    03:00 +7°C° 0 mm 3 mps 737 mmHg 80%
    04:00 +7°C° 0 mm 3 mps 737 mmHg 82%
    05:00 +8°C° 0 mm 3 mps 738 mmHg 80%
    06:00 +8°C° 0 mm 2 mps 738 mmHg 77%
    07:00 +9°C° 0 mm 2 mps 738 mmHg 74%
    08:00 +10°C° 0 mm 2 mps 738 mmHg 71%
    09:00 +12°C° 0 mm 2 mps 738 mmHg 68%
    10:00 +12°C° 0 mm 3 mps 739 mmHg 64%
    11:00 +13°C° 0 mm 3 mps 739 mmHg 61%
    12:00 +14°C° 0 mm 3 mps 739 mmHg 57%
    13:00 +16°C° 0 mm 3 mps 739 mmHg 53%
    14:00 +17°C° 0 mm 3 mps 739 mmHg 52%
    15:00 +17°C° 0 mm 3 mps 739 mmHg 51%
    16:00 +18°C° 0 mm 3 mps 739 mmHg 50%
    17:00 +17°C° 0 mm 2 mps 739 mmHg 56%
    18:00 +15°C° 0 mm 2 mps 739 mmHg 62%
    19:00 +14°C° 0 mm 2 mps 739 mmHg 68%
    20:00 +13°C° 0 mm 1 mps 739 mmHg 69%
    21:00 +12°C° 0 mm 1 mps 739 mmHg 69%
    22:00 +11°C° 0 mm 1 mps 739 mmHg 70%
    23:00 +10°C° 0 mm 1 mps 739 mmHg 70%

    31 May, Friday

    Time Temperature Precipitation Wind Pressure Humidity
    00:00 +10°C° 0 mm 1 mps 739 mmHg 69%
    01:00 +9°C° 0 mm 1 mps 739 mmHg 69%
    02:00 +9°C° 0 mm 1 mps 739 mmHg 69%
    03:00 +9°C° 0 mm 1 mps 739 mmHg 70%
    04:00 +9°C° 0 mm 1 mps 739 mmHg 70%
    05:00 +11°C° 0 mm 1 mps 739 mmHg 66%
    06:00 +13°C° 0 mm 1 mps 739 mmHg 62%
    07:00 +15°C° 0 mm 1 mps 739 mmHg 57%
    08:00 +16°C° 0 mm 1 mps 739 mmHg 53%
    09:00 +19°C° 0 mm 1 mps 739 mmHg 49%
    10:00 +21°C° 0 mm 1 mps 739 mmHg 45%
    11:00 +19°C° 0 mm 0 mps 738 mmHg 44%
    12:00 +20°C° 0 mm 0 mps 738 mmHg 43%
    13:00 +21°C° 0 mm 0 mps 738 mmHg 41%
    14:00 +20°C° 0 mm 0 mps 737 mmHg 42%
    15:00 +22°C° 0 mm 1 mps 737 mmHg 42%
    16:00 +22°C° 0 mm 1 mps 737 mmHg 43%
    17:00 +20°C° 0 mm 1 mps 737 mmHg 50%
    18:00 +19°C° 0 mm 1 mps 736 mmHg 56%
    19:00 +16°C° 0 mm 1 mps 736 mmHg 63%
    20:00 +16°C° 0 mm 1 mps 736 mmHg 65%
    21:00 +15°C° 0 mm 1 mps 736 mmHg 66%
    22:00 +14°C° 0 mm 1 mps 736 mmHg 68%
    23:00 +14°C° 0 mm 1 mps 736 mmHg 72%

    1 June, Saturday

    Time Temperature Precipitation Wind Pressure Humidity
    00:00 +14°C° 0 mm 2 mps 736 mmHg 76%
    01:00 +14°C° 0 mm 2 mps 736 mmHg 80%
    02:00 +12°C° 0.2 mm 3 mps 737 mmHg 85%
    03:00 +12°C° 0.2 mm 4 mps 737 mmHg 89%
    04:00 +12°C° 0.2 mm 5 mps 737 mmHg 94%
    05:00 +10°C° 0.1 mm 5 mps 737 mmHg 93%
    06:00 +9°C° 0.1 mm 5 mps 737 mmHg 92%
    07:00 +9°C° 0.1 mm 5 mps 738 mmHg 91%
    08:00 +9°C° 0 mm 5 mps 738 mmHg 90%
    09:00 +9°C° 0 mm 5 mps 738 mmHg 89%
    10:00 +9°C° 0 mm 5 mps 738 mmHg 88%
    11:00 +10°C° 0 mm 5 mps 738 mmHg 85%
    12:00 +12°C° 0 mm 5 mps 738 mmHg 83%
    13:00 +12°C° 0 mm 5 mps 739 mmHg 80%
    14:00 +13°C° 0 mm 5 mps 738 mmHg 79%
    15:00 +13°C° 0 mm 5 mps 738 mmHg 78%
    16:00 +14°C° 0 mm 5 mps 738 mmHg 77%
    17:00 +14°C° 0 mm 4 mps 738 mmHg 78%
    18:00 +13°C° 0 mm 4 mps 738 mmHg 80%
    19:00 +13°C° 0 mm 3 mps 739 mmHg 82%
    20:00 +13°C° 0 mm 3 mps 739 mmHg 81%
    21:00 +12°C° 0 mm 3 mps 739 mmHg 81%
    22:00 +11°C° 0 mm 3 mps 739 mmHg 81%
    23:00 +10°C° 0 mm 3 mps 739 mmHg 84%
    Show more